Theta_e
293 291 291 290 289 289 287 286 286 284 283 282 281 280 279 279 280 279 278 278 278 277 278 278 278 278 279 277 277 278 279 278 279 277 277 278 277 276 277 276 275 276
293 293 293 291 290 290 289 288 287 285 283 282 281 279 279 280 279 279 279 279 279 277 277 278 278 277 277 278 277 278 277 277 277 280 277 277 276 276 276 276 276 276
294 294 293 291 290 290 289 289 287 285 283 281 280 279 280 280 279 278 278 278 277 277 278 277 277 278 278 277 277 277 277 277 277 277 279 277 277 276 276 276 276 276
294 294 293 292 291 290 289 288 286 284 282 280 279 280 281 281 279 278 279 280 277 277 277 277 277 277 277 277 277 277 277 277 278 278 277 277 278 277 276 277 278 276
294 294 293 292 291 290 288 287 285 284 282 281 279 280 281 279 278 278 278 278 277 277 277 277 277 277 278 277 277 276 278 277 277 277 277 277 276 278 277 277 276 275
293 293 292 291 290 289 288 287 285 284 282 280 280 281 279 279 278 278 278 277 277 277 277 276 277 277 277 276 276 276 277 278 277 277 277 277 276 277 277 277 276 275
293 292 291 291 289 289 288 286 285 284 282 280 280 279 279 278 278 278 277 278 277 278 277 277 276 277 277 276 277 276 276 277 277 277 277 276 277 277 276 276 276 275
292 292 291 289 288 288 287 285 284 283 282 280 279 279 279 279 278 278 278 277 277 277 276 276 276 276 276 276 276 276 276 278 278 277 276 276 276 276 276 277 276 275
292 291 290 289 288 287 286 285 284 282 282 280 279 279 279 279 278 278 277 277 277 277 276 276 276 276 276 276 276 276 276 276 277 276 276 276 276 276 276 276 275 275
292 291 290 289 288 287 286 285 283 282 282 281 280 279 279 278 278 277 277 277 277 277 276 276 276 276 276 276 276 276 275 276 276 276 276 276 276 276 276 276 275 275
291 290 289 288 288 287 286 285 283 283 282 281 280 279 279 278 278 277 277 277 277 277 276 276 276 276 276 276 276 276 276 276 276 276 276 276 276 277 278 276 275 275
290 289 289 288 288 287 285 284 283 283 282 281 280 279 278 278 278 277 278 277 277 276 276 276 276 276 276 276 275 275 276 276 276 276 276 276 276 277 276 276 275 273
290 289 289 288 287 286 285 284 283 283 282 280 280 279 279 278 278 277 278 277 277 276 276 276 276 275 275 275 275 275 275 275 275 275 276 276 277 276 276 276 274 273
290 289 289 288 287 286 285 284 283 282 281 281 280 279 278 278 278 278 277 277 277 277 277 276 275 275 275 275 275 275 275 275 275 276 277 276 277 276 276 275 274 273
290 288 288 288 286 286 285 284 283 282 282 281 280 279 279 278 278 278 277 277 276 276 276 276 276 276 276 275 275 275 275 275 277 277 277 276 276 276 275 274 273 273
289 288 287 287 286 285 285 284 283 282 281 280 280 279 278 278 277 277 277 277 277 276 276 276 276 276 278 281 281 276 275 277 277 277 277 276 276 276 274 274 273 273
288 287 287 286 286 285 284 284 283 282 281 280 279 278 278 278 277 277 277 277 277 277 276 276 277 277 280 283 283 283 278 276 276 277 277 276 276 275 273 273 273 273
287 287 286 286 285 285 284 283 282 281 281 280 279 278 278 278 277 277 277 277 277 276 276 277 277 280 282 283 284 284 284 278 277 277 277 277 276 275 274 273 273 272
287 286 286 286 285 285 284 283 282 281 281 280 279 279 278 277 278 277 277 277 277 276 276 277 276 281 283 284 285 285 285 283 278 278 277 277 276 275 274 273 273 273
287 286 286 286 285 285 284 283 282 281 281 280 279 278 278 278 278 278 277 277 277 277 277 277 276 280 283 284 285 285 286 285 279 278 278 277 277 276 275 274 273 273
287 286 286 286 285 285 284 282 282 282 281 280 279 279 278 278 278 278 278 277 277 277 277 277 277 281 283 284 285 286 286 286 279 279 278 277 277 276 275 274 274 274
287 286 286 286 285 284 283 283 282 282 281 280 279 279 278 278 278 278 278 278 277 277 276 277 277 282 283 284 285 286 287 283 280 278 278 277 276 276 275 275 274 274
287 286 286 286 285 284 283 283 282 282 281 280 279 279 278 278 278 278 278 278 277 277 276 277 277 280 283 284 285 286 286 281 279 278 277 276 276 276 275 274 274 273
286 286 285 285 285 284 283 283 282 282 281 280 280 279 279 279 279 278 278 278 278 277 277 277 278 279 283 284 285 286 285 280 279 277 277 276 276 275 275 274 274 276
285 285 285 284 284 283 283 283 282 282 281 280 280 280 280 279 278 278 278 277 278 278 278 277 278 278 283 284 285 286 285 280 278 276 276 275 275 274 274 274 273 275
285 284 284 284 284 283 283 283 282 281 281 280 280 280 279 278 278 278 278 278 278 277 278 278 278 277 278 284 285 286 286 281 277 276 275 275 274 273 272 271 272 272
Wind_Speed
8 8 9 7 7 6 8 8 6 7 6 5 6 5 6 5 5 5 4 4 3 3 3 3 4 4 4 3 3 4 3 2 3 2 4 4 3 3 3 2 2 2
9 9 7 6 6 5 6 7 8 7 7 6 5 5 4 5 4 5 5 4 3 3 3 4 3 4 4 3 3 4 3 3 3 1 3 3 2 3 2 1 1 1
9 8 9 9 8 8 8 6 6 6 7 5 5 6 6 4 5 4 5 5 4 3 4 3 3 3 3 3 3 3 2 1 2 1 3 1 0 2 0 0 0 0
9 10 9 8 8 8 7 7 6 5 6 5 6 6 6 5 5 5 5 4 4 3 3 3 3 2 3 3 3 3 1 1 0 0 2 1 0 0 1 0 0 1
10 8 8 7 7 7 8 8 8 7 8 6 5 5 6 6 5 5 5 4 4 3 3 3 2 2 2 2 2 2 1 1 1 0 0 1 2 1 2 1 1 2
6 7 8 8 8 9 8 9 8 8 8 6 7 6 6 6 6 6 5 5 4 4 3 3 3 2 2 2 2 2 0 0 1 0 1 1 3 2 1 2 2 3
10 9 9 7 8 8 8 8 7 8 7 6 5 6 6 6 6 6 5 5 4 4 4 4 3 2 2 2 2 1 0 0 0 0 0 2 1 3 2 2 3 3
10 8 9 8 9 8 8 8 8 8 7 6 7 6 6 6 6 5 5 5 5 4 4 4 3 2 2 2 2 1 1 0 0 0 0 2 1 3 3 2 2 2
9 8 8 10 10 8 8 8 7 7 7 8 7 7 5 6 6 6 6 5 4 4 4 3 3 3 3 3 3 3 2 2 1 1 1 2 2 3 3 3 2 2
9 9 9 10 9 8 9 8 8 8 7 7 6 6 7 5 5 6 5 5 5 4 4 4 3 3 3 3 4 3 3 3 2 1 2 2 3 3 3 3 3 2
10 10 10 10 10 8 10 9 9 8 7 8 7 7 6 6 5 5 5 5 6 5 4 4 4 4 4 4 3 3 3 3 3 2 2 3 3 3 4 3 3 3
11 10 11 11 10 9 9 9 9 9 9 7 8 8 6 6 7 6 6 6 5 5 4 4 4 4 4 4 4 3 3 3 3 3 3 3 3 3 3 3 3 3
12 12 10 10 10 9 8 8 8 8 9 9 8 8 8 7 6 6 5 5 5 4 5 5 4 4 5 4 4 3 3 3 3 3 3 3 3 3 3 3 3 3
11 10 9 9 8 8 9 9 9 8 8 7 7 8 8 8 8 8 6 5 5 5 4 4 4 4 4 4 4 4 3 3 3 3 3 3 3 2 2 3 4 3
8 7 7 8 8 8 9 9 9 9 9 8 8 7 6 7 6 5 6 5 4 5 4 4 5 6 5 5 4 4 3 3 4 4 3 3 2 2 2 3 3 3
8 7 8 8 9 10 9 9 8 7 7 8 8 7 7 6 6 5 5 6 6 5 4 5 6 5 6 9 7 5 4 4 4 4 4 3 3 3 2 3 3 4
8 8 8 10 10 8 8 10 10 9 8 8 7 7 8 7 6 7 6 6 6 6 6 7 6 6 10 11 11 11 6 5 5 5 3 3 3 3 3 3 4 4
9 9 9 10 9 10 10 10 8 9 9 9 8 8 7 6 7 8 7 6 6 6 7 7 7 8 11 12 12 12 10 6 5 5 4 4 4 4 3 3 4 4
9 10 10 10 10 10 8 8 9 9 9 10 11 8 6 8 9 7 8 7 7 8 9 8 7 8 12 12 13 13 13 9 5 5 5 5 4 4 4 4 4 4
10 10 11 11 9 9 9 10 10 12 11 8 7 7 9 9 8 9 8 8 9 9 9 8 8 8 12 13 13 14 13 10 5 6 6 5 5 5 4 5 5 5
10 10 10 10 10 10 9 10 11 9 9 9 9 10 11 11 10 10 9 9 9 8 8 8 8 10 12 14 14 14 14 11 5 6 5 5 5 5 5 5 5 5
11 11 10 9 10 10 10 11 11 11 12 9 8 7 6 5 6 7 9 10 9 8 8 10 8 10 13 14 15 14 13 7 6 6 6 6 6 5 5 5 5 5
11 11 11 11 11 11 11 12 12 12 10 7 9 9 9 9 10 10 9 9 9 9 10 10 9 10 13 14 14 15 10 7 6 6 6 6 7 5 5 5 5 5
10 11 11 11 11 13 14 12 10 7 8 9 11 11 11 12 10 8 8 9 10 11 11 11 11 9 13 13 14 15 12 8 7 7 7 7 7 5 5 5 6 9
9 10 10 11 12 13 11 11 11 12 8 7 8 8 10 7 7 8 8 8 9 10 11 12 10 7 11 13 15 16 12 7 7 6 7 7 6 7 5 6 5 7
8 10 11 11 12 11 9 10 7 6 8 10 9 8 8 7 7 8 10 10 9 9 10 10 10 8 7 13 15 16 16 9 7 7 9 9 6 7 6 4 5 5
Wind_Direction
160 170 169 171 177 178 171 165 171 167 169 171 177 179 174 170 144 130 138 127 130 124 114 99 87 73 65 59 51 56 51 47 50 34 59 70 64 75 62 48 45 54
173 171 168 164 159 168 173 164 167 170 166 176 177 159 169 148 145 137 138 132 132 140 124 100 93 87 75 65 54 63 54 59 45 23 67 65 78 86 91 99 65 31
168 167 169 171 173 172 166 160 164 163 156 172 158 156 158 147 141 136 134 137 147 149 116 109 96 93 85 82 78 73 105 86 43 7 71 73 109 104 181 147 53 57
175 175 170 170 167 163 156 149 155 144 129 153 175 164 153 148 141 141 136 141 148 143 122 108 114 107 90 86 80 85 129 160 233 43 60 25 181 191 243 203 231 310
176 167 166 165 161 153 150 154 158 159 155 167 156 151 146 144 145 143 144 145 140 135 124 122 116 112 111 91 95 97 155 214 260 182 74 332 287 230 261 201 241 273
167 165 165 165 162 157 160 161 159 157 149 162 174 153 153 154 152 152 152 150 147 144 136 125 128 119 122 114 109 130 195 262 284 17 20 314 306 297 266 234 237 263
171 170 166 160 156 160 157 156 153 152 160 164 152 157 158 160 162 159 157 154 152 158 145 143 140 144 143 133 129 142 215 213 282 108 359 308 304 308 300 236 241 255
171 170 162 156 159 161 159 157 158 158 156 156 169 161 167 167 163 161 156 155 156 162 152 150 149 171 175 155 154 170 262 194 189 135 326 306 318 298 296 257 244 261
162 170 166 161 161 164 162 159 154 151 159 166 169 160 178 172 165 161 159 157 160 160 158 154 166 190 189 180 192 191 215 241 221 197 237 279 301 285 278 273 275 271
170 171 169 165 166 167 164 164 160 161 167 168 168 156 173 177 164 161 156 161 162 165 165 169 180 202 200 194 197 193 205 229 236 219 224 235 243 265 273 262 248 259
175 176 177 172 171 170 172 167 161 161 170 170 162 167 175 164 169 161 160 165 175 178 178 183 197 201 208 210 209 201 206 213 223 234 243 244 242 253 260 249 238 213
177 180 184 177 172 171 168 166 164 169 171 172 171 167 171 176 169 177 173 180 181 180 180 190 199 207 210 209 203 204 207 214 222 230 246 249 258 257 253 239 212 199
183 187 180 176 173 171 167 170 173 173 172 173 175 168 171 175 180 178 186 178 188 178 189 194 204 211 215 211 207 204 209 217 227 231 246 250 251 248 248 222 199 185
190 181 176 175 168 165 170 171 169 173 179 174 167 170 177 180 182 185 184 180 188 191 195 191 203 215 219 215 205 201 205 220 219 229 237 248 259 262 231 205 196 189
178 173 169 167 167 168 174 179 177 173 173 174 177 177 181 185 183 175 171 187 199 197 195 197 207 218 214 209 204 208 201 213 212 219 226 241 263 278 234 210 199 195
174 169 171 168 171 178 178 172 171 176 178 177 181 181 180 181 177 179 184 190 196 204 202 205 218 220 218 211 202 193 197 207 211 218 221 225 240 264 252 218 211 198
169 175 170 179 182 176 176 177 176 174 180 183 182 181 183 183 179 184 198 197 199 202 206 214 219 222 218 218 220 211 192 201 207 221 215 220 223 224 243 227 219 211
176 172 179 184 179 186 184 182 173 174 181 185 183 187 189 177 187 198 199 199 201 209 216 218 222 218 218 220 221 222 208 196 204 210 213 219 220 221 229 219 215 209
173 181 186 186 191 187 179 171 177 183 186 187 194 186 167 188 200 193 205 202 202 211 223 223 226 216 218 218 221 221 220 198 200 203 215 223 217 221 221 223 215 209
181 185 191 193 186 182 178 181 184 194 195 189 174 173 189 196 197 201 203 205 207 214 224 227 227 212 215 218 220 221 221 215 193 206 214 219 219 216 221 220 217 210
186 190 193 190 187 185 184 190 195 196 190 190 186 189 191 196 196 200 207 209 212 215 224 232 231 210 212 217 220 221 219 218 198 208 213 221 222 219 221 223 220 216
190 193 193 190 189 188 191 196 197 197 196 189 186 195 202 195 207 205 208 211 213 212 221 236 235 208 211 213 217 220 217 211 203 210 218 223 229 224 224 225 221 213
193 193 194 193 191 191 198 201 198 200 200 179 188 196 194 200 205 205 208 208 211 212 217 234 240 214 209 209 213 215 211 206 205 212 222 227 234 228 225 224 220 215
194 193 196 195 192 200 203 205 203 201 197 183 192 192 200 206 204 206 210 211 212 215 213 224 237 218 204 207 209 210 205 203 203 208 226 230 241 236 227 226 222 217
192 195 199 198 201 208 203 200 200 201 192 177 200 199 209 199 195 207 214 217 218 221 217 222 238 223 199 204 207 208 206 198 196 204 225 236 231 242 233 226 230 222
194 198 203 202 208 209 203 207 197 178 182 190 200 200 202 197 200 207 216 222 217 219 223 223 232 234 203 206 204 208 203 192 188 195 224 232 224 229 241 241 227 226